Inquirer Daily News

Weather

Get conditions and forecasts for any City, State, ZIP code or Country:  
Trenton, NJ
on Wednesday, December 5, 2012

Wednesday
Previous Day Next Day
Daily Summary
 ActualAverageRecord
Temperature
Mean Temperature °F 39°F  
Max Temperature 58°F 46°F 74°F (2001)
Min Temperature 34°F 31°F 10°F (1926)
Degree Days
Heating Degree Days 19 26  
Month to date heating degree days 80 127  
Since 1 July heating degree days 1087 1103  
Cooling Degree Days 0 0  
Month to date cooling degree days 0 0  
Year to date cooling degree days 1234 965  
Moisture
Dew Point 35°F   
Average Humidity 63    
Maximum Humidity 86    
Minimum Humidity 40    
Precipitation
Precipitation 0.01 in 0.13 in 1.60 in (1993)
Month to date precipitation 0.09 0.71  
Year to date precipitation 33.32 43.45  
Wind
Wind Speed 9 mph   
Max Wind Speed 24 mph   
Max Gust Speed 31 mph   
Visibility 10 miles   
Events     

Key: T is trace of precipitation, MM is missing value
Source: NWS Daily Summary
Time(EST)TemperatureDew PointHumidity Pressure Visibility Wind DirectionWind SpeedGust SpeedPrecipitationEvents Conditions
12:53 AM 55.0°F 51.1°F 86% 29.94 in 10.0 miles Calm Calm - 0.00 in   Overcast
1:53 AM 55.0°F 50.0°F 83% 29.93 in 10.0 miles SSW 4.6 mph - N/A   Overcast
2:53 AM 55.9°F 51.1°F 84% 29.92 in 10.0 miles SW 5.8 mph - 0.01 in   Overcast
3:53 AM 57.0°F 50.0°F 77% 29.93 in 10.0 miles West 4.6 mph - N/A   Mostly Cloudy
4:53 AM 57.0°F 50.0°F 77% 29.95 in 10.0 miles North 10.4 mph - 0.00 in   Overcast
5:53 AM 55.0°F 45.0°F 69% 29.97 in 10.0 miles NNW 4.6 mph - 0.00 in   Overcast
6:53 AM 54.0°F 43.0°F 66% 30.00 in 10.0 miles NNW 9.2 mph - N/A   Overcast
7:53 AM 53.1°F 43.0°F 69% 30.02 in 10.0 miles NNW 6.9 mph 17.3 mph N/A   Overcast
9:53 AM 52.0°F 37.9°F 59% 30.05 in 10.0 miles NW 10.4 mph 19.6 mph N/A   Clear
10:53 AM 51.1°F 37.0°F 59% 30.05 in 10.0 miles NW 15.0 mph 19.6 mph N/A   Clear
11:53 AM 53.1°F 35.1°F 50% 30.03 in 10.0 miles NW 12.7 mph - N/A   Clear
12:53 PM 53.1°F 32.0°F 45% 30.03 in 10.0 miles North 15.0 mph 21.9 mph N/A   Clear
1:53 PM 54.0°F 33.1°F 45% 30.03 in 10.0 miles NNW 11.5 mph 20.7 mph N/A   Clear
2:53 PM 53.1°F 32.0°F 45% 30.04 in 10.0 miles North 10.4 mph 20.7 mph N/A   Partly Cloudy
3:53 PM 50.0°F 30.0°F 46% 30.06 in 10.0 miles NNW 9.2 mph - N/A   Clear
4:53 PM 50.0°F 30.0°F 46% 30.08 in 10.0 miles NNW 9.2 mph - N/A   Mostly Cloudy
5:53 PM 46.9°F 30.0°F 52% 30.12 in 10.0 miles North 11.5 mph 19.6 mph N/A   Overcast
6:53 PM 41.0°F 21.9°F 47% 30.18 in 10.0 miles North 15.0 mph 26.5 mph N/A   Partly Cloudy
7:53 PM 39.0°F 18.0°F 43% 30.20 in 10.0 miles North 10.4 mph 19.6 mph N/A   Clear
8:53 PM 37.9°F 19.0°F 47% 30.22 in 10.0 miles North 5.8 mph - N/A   Clear
9:53 PM 37.0°F 19.0°F 48% 30.21 in 10.0 miles North 12.7 mph 17.3 mph N/A   Clear
10:53 PM 35.1°F 19.9°F 54% 30.23 in 10.0 miles NNE 8.1 mph - N/A   Clear
11:53 PM 34.0°F 18.0°F 52% 30.25 in 10.0 miles North 8.1 mph 19.6 mph N/A   Clear
Astronomy
Sunrise:07:07 AM (EST) Moon Rise:11:20 PM (EST)12/5
Sunset:04:33 PM (EST) Moon Set:11:28 AM (EST)12/5
Moon Phase
Dec. 05 Dec. 06 Dec. 13 Dec. 20 Dec. 28

Copyright © 2014 The Weather Underground, Inc.